Memphis, TN

8:20 AM CDT on March 24, 2017 (GMT -0500)
Memphis International

Weather History for KMEM - February, 2012

Change the Weather History Date:

Tuesday, February 21, 2012

  Actual Average Record
Temperature  
Mean Temperature 55 °F 47 °F  
Max Temperature 62 °F 57 °F 78 °F (1922)
Min Temperature 47 °F 38 °F 15 °F (1963)
Degree Days  
Heating Degree Days 10 18  
Month to date heating degree days 392 430  
Since 1 July heating degree days 1920 2332  
Cooling Degree Days 0 0  
Month to date cooling degree days 0 0  
Year to date cooling degree days 0 1  
Growing Degree Days 4 (Base 50)    
Moisture  
Dew Point 36 °F    
Average Humidity 58    
Maximum Humidity 86    
Minimum Humidity 29    
Precipitation  
Precipitation 0.04 in 0.16 in 3.24 in (1971)
Month to date precipitation 2.46 3.25  
Year to date precipitation 4.19 7.23  
Snow  
Snow 0.00 in 0.10 in 1.10 in (1968)
Month to date snowfall T 1.1  
Since 1 July snowfall 1.4 3.2  
Snow Depth 0.00 in    
Sea Level Pressure  
Sea Level Pressure 30.00 in    
Wind  
Wind Speed 12 mph (SW)    
Max Wind Speed 22 mph    
Max Gust Speed 32 mph    
Visibility 10 miles    
Events Rain    
T = Trace of Precipitation, MM = Missing Value Source: NWS Daily Summary

Daily Weather History Graph

Daily Weather History Graph

Search for Another Location

Airport or City:

Trip Planner

Search our weather history database for the weather conditions in past years. The results will help you decide how hot, cold, wet, or windy it might be!

Date:

Astronomy

Feb. 21, 2012 Rise Set
Actual Time 6:39 AM CST 5:47 PM CST
Civil Twilight 6:14 AM CST 6:13 PM CST
Nautical Twilight 5:44 AM CST 6:43 PM CST
Astronomical Twilight 5:15 AM CST 7:12 PM CST
Moon 6:09 AM CST (2/21) 5:52 PM CST (2/21)
Length of Visible Light 11h 59m
Length of Day
11h 08m
Waning Crescent, 0% of the Moon is Illuminated
Feb 21
Waning Crescent
Feb 21
New
Feb 29
First Quarter
Mar 8
Full
Mar 14
Last Quarter

Hourly Weather History & Observations

Time (CST) Temp. Dew Point Humidity Pressure Visibility Wind Dir Wind Speed Gust Speed Precip Events Conditions
12:18 AM 51.8 °F 33.8 °F 50% 29.95 in 10.0 mi South 18.4 mph 25.3 mph N/A   Mostly Cloudy
12:31 AM 53.6 °F 33.8 °F 47% 29.97 in 10.0 mi SSW 17.3 mph 26.5 mph N/A   Mostly Cloudy
12:54 AM 52.0 °F 39.0 °F 61% 29.99 in 7.0 mi SSW 12.7 mph 26.5 mph 0.00 in Rain Light Rain
1:46 AM 50.0 °F 44.6 °F 82% 29.97 in 10.0 mi SSW 18.4 mph 25.3 mph 0.04 in   Mostly Cloudy
1:54 AM 50.0 °F 45.0 °F 83% 29.98 in 10.0 mi SSW 16.1 mph 25.3 mph 0.04 in   Mostly Cloudy
2:54 AM 48.9 °F 45.0 °F 86% 29.96 in 10.0 mi SSW 13.8 mph 20.7 mph N/A   Partly Cloudy
3:54 AM 51.1 °F 45.0 °F 80% 29.96 in 10.0 mi SSW 20.7 mph 28.8 mph N/A   Partly Cloudy
4:54 AM 50.0 °F 43.0 °F 77% 29.99 in 10.0 mi WSW 13.8 mph 26.5 mph N/A   Clear
5:54 AM 48.2 °F 42.8 °F 82% 30.02 in 10.0 mi SW 9.2 mph - N/A   Partly Cloudy
6:54 AM 46.9 °F 39.0 °F 74% 30.04 in 10.0 mi SW 9.2 mph - N/A   Partly Cloudy
7:54 AM 48.9 °F 36.0 °F 61% 30.06 in 10.0 mi WSW 15.0 mph 19.6 mph N/A   Partly Cloudy
8:54 AM 51.1 °F 36.0 °F 56% 30.08 in 10.0 mi WSW 12.7 mph 20.7 mph N/A   Clear
9:54 AM 53.1 °F 35.1 °F 50% 30.09 in 10.0 mi WSW 12.7 mph 20.7 mph N/A   Partly Cloudy
10:54 AM 55.4 °F 35.6 °F 47% 30.09 in 10.0 mi WSW 13.8 mph 21.9 mph N/A   Partly Cloudy
11:54 AM 57.9 °F 36.0 °F 44% 30.07 in 10.0 mi WSW 16.1 mph 21.9 mph N/A   Partly Cloudy
12:54 PM 60.1 °F 36.0 °F 41% 30.05 in 10.0 mi West 12.7 mph 23.0 mph N/A   Clear
1:54 PM 60.8 °F 33.8 °F 36% 30.03 in 10.0 mi WSW 12.7 mph 19.6 mph N/A   Clear
2:54 PM 61.0 °F 32.0 °F 34% 30.01 in 10.0 mi WSW 18.4 mph 21.9 mph N/A   Clear
3:54 PM 61.0 °F 28.9 °F 30% 30.00 in 10.0 mi WSW 11.5 mph 20.7 mph N/A   Partly Cloudy
4:54 PM 61.0 °F 30.0 °F 31% 30.00 in 10.0 mi West 12.7 mph - N/A   Clear
5:54 PM 57.0 °F 30.0 °F 36% 29.99 in 10.0 mi SW 4.6 mph - N/A   Clear
7:54 PM 51.1 °F 32.0 °F 48% 29.98 in 10.0 mi South 6.9 mph - N/A   Clear
8:54 PM 48.0 °F 32.0 °F 54% 29.96 in 10.0 mi South 8.1 mph - N/A   Clear
9:54 PM 48.9 °F 33.1 °F 54% 29.96 in 10.0 mi South 8.1 mph - N/A   Clear
10:54 PM 53.1 °F 33.1 °F 47% 29.95 in 10.0 mi SSW 12.7 mph 21.9 mph N/A   Clear
11:54 PM 53.1 °F 32.0 °F 45% 29.94 in 10.0 mi SSW 15.0 mph 25.3 mph N/A   Clear